Regional Weather Roundup
Issued by NWS

Home | Current Version | Previous Version | Graphics & Text | Print | Product List | Glossary On
Versions: 1 2 3 4 5 6 7 8 9 10 11 12 13 14 15 16 17 18 19 20 21 22 23 24 25 26 27 28 29 30 31 32 33 34 35 36 37 38 39 40 41 42 43 44 45 46 47 48 49 50
347
ASUS43 KIND 240009
RWRIN

WEATHER ROUNDUP FOR INDIANA
NATIONAL WEATHER SERVICE INDIANAPOLIS IN
800 PM EDT SUN APR 23 2017

NOTE: "FAIR" INDICATES FEW OR NO CLOUDS BELOW 12,000 FEET WITH NO
SIGNIFICANT WEATHER AND/OR OBSTRUCTIONS TO VISIBILITY.

* - STATION DOES NOT REPORT WEATHER SUCH AS PRECIPITATION OR FOG.

+ - STATION NOT QUALITY CONTROLLED BY THE NATIONAL WEATHER SERVICE.
    USE DATA WITH CAUTION...ESPECIALLY DEWPOINT AND RELATIVE
    HUMIDITY OBSERVATIONS.

INZ001>003-010>013-019-020-240100-
NORTHWEST INDIANA

CITY           SKY/WX    TMP DP  RH WIND       PRES   REMARKS
GARY /AIRPORT/ PTCLDY    63  16  16 NE10      30.06F
KNOX *+        CLEAR     64  -2   7 N9        30.03S
LA PORTE +     CLEAR     60  29  30 N8        30.05S
6HR MIN TEMP:  60; 6HR MAX TEMP:  67;

MICHIGAN CITY+ CLEAR     59  28  31 N3        30.06S
MONTICELLO +   CLEAR     67  27  22 NE6       30.00S
6HR MIN TEMP:  66; 6HR MAX TEMP:  70;

RENSSELAER +   CLEAR     66  19  16 N9        30.02F
VALPARAISO     CLEAR     63  24  22 N8        30.05S
6HR MIN TEMP:  63; 6HR MAX TEMP:  70;


$$

LMZ046-743>745-240100-
SOUTHERN LAKE MICHIGAN

STATION/POSITION TIME  TEMP    WIND        PRES    WAVE
                       AIR SEA DIR/SP/G            HT
                 (UTC) (F)     (DEG/KT/KT) (MB)    (FT)
BURNS HARBOR     2340   58      70/  5/  5 1018.3S
MICHIGAN CITY    2340   54      60/  2/  2   N/A

$$

INZ004-005-014>016-021>024-240100-
NORTH CENTRAL INDIANA

CITY           SKY/WX    TMP DP  RH WIND       PRES   REMARKS
GOSHEN         CLEAR     65  31  28 E5        30.03S
6HR MIN TEMP:  64; 6HR MAX TEMP:  69;

LOGANSPORT +   CLEAR     64  32  29 NE3       30.02S
PERU/GRISSOM   CLEAR     64  35  35 NE8       30.00F
6HR MIN TEMP:  64; 6HR MAX TEMP:  68;

ROCHESTER +    CLEAR     68  27  21 N6        30.02S
SOUTH BEND     CLEAR     61  34  36 N10       30.05R
6HR MIN TEMP:  61; 6HR MAX TEMP:  69;

WARSAW +       CLEAR     64  32  29 N3        30.02F

$$

INZ006>009-017-018-025>027-240100-
NORTHEAST INDIANA

CITY           SKY/WX    TMP DP  RH WIND       PRES   REMARKS
ANGOLA *+      CLEAR     64  57  77 CALM      30.03S
AUBURN +       CLEAR     63  36  36 E3        30.03S
FORT WAYNE     PTCLDY    62  34  35 E9        30.03S
6HR MIN TEMP:  62; 6HR MAX TEMP:  68;

HUNTINGTON +   CLEAR     63  32  31 CALM      30.02S
6HR MIN TEMP:  63; 6HR MAX TEMP:  67;

KENDALLVILLE + CLEAR     63  37  39 NE5       30.03S

$$

INZ028-029-035-036-043>045-051>053-240100-
WEST CENTRAL INDIANA

CITY           SKY/WX    TMP DP  RH WIND       PRES   REMARKS
CRAWFORDSVL +  CLEAR     63  31  30 NE9       30.00S
6HR MIN TEMP:  63; 6HR MAX TEMP:  68;

GREENCASTLE +  CLEAR     63  28  27 N13       29.99S
LAFAYETTE      CLEAR     64  34  32 NE8       30.00F
6HR MIN TEMP:  64; 6HR MAX TEMP:  68;

TERRE HAUTE    CLEAR     67  25  20 NE12      29.98S
6HR MIN TEMP:  67; 6HR MAX TEMP:  72;


$$

INZ030>032-037>040-046>048-054>057-064-065-240100-
CENTRAL INDIANA

CITY           SKY/WX    TMP DP  RH WIND       PRES   REMARKS
CP ATTERBURY + PTCLDY    66  32  28 NE8       29.97S
COLUMBUS       CLEAR     63  28  27 NE14      29.97
FRANKFORT +    CLEAR     68  31  25 E9        30.03S
6HR MIN TEMP:  66; 6HR MAX TEMP:  72;

GREENWOOD *+   PTCLDY    68  29  23 NE9       29.98F
6HR MIN TEMP:  66; 6HR MAX TEMP:  71;

INDIANAPOLIS   PTCLDY    67  29  24 NE13      29.98S
6HR MIN TEMP:  65; 6HR MAX TEMP:  71;

-EAGLE CREEK   CLEAR     68  25  19 NE9G17    29.98S
6HR MIN TEMP:  65; 6HR MAX TEMP:  71;

KOKOMO +       CLEAR     63  32  31 NE9       30.02S
6HR MIN TEMP:  63; 6HR MAX TEMP:  69;

MARION +       CLEAR     64  30  27 NE9       30.02S HAZE
MT COMFORT *+  CLEAR     64  32  29 NE12      29.99S
SHELBYVILLE    PTCLDY    70  29  21 NE9       29.97S
6HR MIN TEMP:  69; 6HR MAX TEMP:  73;

ZIONSVILLE +   CLEAR     65  26  23 NE10      30.01S
6HR MIN TEMP:  63; 6HR MAX TEMP:  69;


$$

INZ033-034-041-042-049-050-058-059-240100-
EAST CENTRAL INDIANA

CITY           SKY/WX    TMP DP  RH WIND       PRES   REMARKS
MUNCIE         CLEAR     66  25  21 NE13G21   30.01S
6HR MIN TEMP:  66; 6HR MAX TEMP:  72;

RICHMOND +     CLOUDY    61  34  36 NE7       29.99S

$$

INZ060-061-067>069-081>083-085>088-240100-
SOUTHWEST INDIANA

CITY           SKY/WX    TMP DP  RH WIND       PRES   REMARKS
EVANSVILLE     CLEAR     67  36  31 E7        29.92S
6HR MIN TEMP:  67; 6HR MAX TEMP:  73;

HUNTINGBURG *+ PTCLDY    65  35  33 E10       29.93R
6HR MIN TEMP:  64; 6HR MAX TEMP:  69;

WASHINGTON +   CLEAR     68  30  24 CALM      29.93S

$$

INZ062-063-066-070>080-084-089>092-240100-
SOUTH CENTRAL AND SOUTHEAST INDIANA

CITY           SKY/WX    TMP DP  RH WIND       PRES   REMARKS
BLOOMINGTON    PTCLDY    69  28  21 NE15      29.95S
6HR MIN TEMP:  66; 6HR MAX TEMP:  72;

MADISON *+     CLOUDY    59  36  41 NE7       29.97S
NORTH VERNON + PTCLDY    61  36  39 NE7       29.96S
SEYMOUR +      CLOUDY    63  39  42 E5        29.95F

$$





USA.gov is the U.S. government's official web portal to all federal, state and local government web resources and services.